Date,TemperatureHighF,TemperatureAvgF,TemperatureLowF,DewpointHighF,DewpointAvgF,DewpointLowF,HumidityHigh,HumidityAvg,HumidityLow,PressureMaxIn,PressureMinIn,WindSpeedMaxMPH,WindSpeedAvgMPH,GustSpeedMaxMPH,PrecipitationSumIn
2013-3-1,48.0,32.7,19.2,18.0,13.5,8.0,64,47,30,30.39,30.24,9,2,15,0.00
2013-3-2,56.9,38.9,20.7,22.0,18.5,14.0,77,48,24,30.38,30.09,4,1,10,0.00
2013-3-3,58.0,44.1,30.8,24.0,19.6,15.0,66,40,23,30.09,29.66,13,3,20,0.00
2013-3-4,49.3,41.7,31.4,25.0,21.6,17.0,63,46,34,29.95,29.57,15,4,22,0.00
2013-3-5,55.5,36.6,19.0,18.0,11.6,3.0,75,41,12,30.20,29.96,8,1,10,0.00
2013-3-6,58.6,43.0,26.9,25.0,19.8,13.0,63,41,27,30.12,29.80,11,2,19,0.00
2013-3-7,63.4,47.5,33.4,21.0,17.5,11.0,53,33,14,30.09,29.83,11,3,19,0.00
2013-3-8,56.9,40.9,30.9,33.0,23.3,17.0,93,54,24,29.98,29.75,17,2,28,0.01
2013-3-9,31.9,26.6,21.9,30.0,23.0,19.0,93,86,75,30.21,29.80,13,2,16,0.07
2013-3-10,37.1,27.5,19.7,23.0,19.1,16.0,92,72,48,30.43,30.22,10,2,12,0.32
2013-3-11,50.8,34.4,17.2,26.0,20.7,14.0,89,61,31,30.46,29.99,10,2,17,0.02
2013-3-12,56.1,38.8,25.9,27.0,23.3,20.0,85,57,28,30.30,30.05,6,1,11,0.00
2013-3-13,60.2,43.7,29.7,29.0,25.0,23.0,77,51,27,30.37,30.23,9,2,11,0.00
2013-3-14,65.8,47.4,30.4,27.0,22.7,19.0,70,42,19,30.37,30.19,7,1,13,0.00
2013-3-15,68.9,48.2,31.8,25.0,20.7,15.0,64,38,14,30.21,29.91,8,1,21,0.00
2013-3-16,61.8,48.7,37.3,37.0,25.1,19.0,89,42,24,29.90,29.66,12,2,24,0.12
2013-3-17,56.1,42.2,32.2,37.0,26.1,10.0,92,60,20,29.85,29.65,23,4,27,0.01
2013-3-18,53.5,40.6,28.8,21.0,12.6,6.0,54,34,16,30.03,29.85,19,4,24,0.00
2013-3-19,50.5,40.0,28.0,20.0,12.5,5.0,54,33,22,30.22,30.00,12,2,15,0.00
2013-3-20,55.2,40.3,24.0,25.0,19.7,16.0,71,46,26,30.29,29.92,14,2,19,0.00
2013-3-21,58.3,47.3,36.0,29.0,21.3,13.0,55,38,18,29.91,29.51,22,6,32,0.00
2013-3-22,52.7,41.8,24.4,18.0,12.7,6.0,56,32,19,29.76,29.61,15,4,24,0.00
2013-3-23,37.0,28.3,13.5,15.0,4.8,-7.0,76,39,19,30.20,29.67,16,5,30,0.00
2013-3-24,41.3,23.4,5.3,10.0,3.6,0.0,86,50,19,30.38,30.18,17,3,36,0.00
2013-3-25,44.6,29.2,8.9,8.0,3.8,0.0,73,39,17,30.40,30.28,9,2,13,0.00
2013-3-26,57.5,40.1,21.7,18.0,11.1,4.0,52,32,20,30.36,30.02,12,2,22,0.00
2013-3-27,63.5,49.4,33.0,19.0,14.0,9.0,42,26,14,30.07,29.93,11,2,22,0.00
2013-3-28,64.9,49.7,35.2,20.0,14.0,9.0,40,25,15,30.25,29.97,13,3,19,0.00
2013-3-29,63.5,46.5,33.4,35.0,20.4,12.0,58,38,20,30.32,30.20,10,2,17,0.01
2013-3-30,67.6,49.6,30.0,28.0,22.9,19.0,73,39,18,30.37,30.14,10,2,19,0.00
2013-3-31,64.5,51.3,33.0,30.0,25.2,17.0,74,39,19,30.21,30.03,11,3,21,0.00